Regional Weather Roundup
Issued by NWS Upton, NY

Current Version | Previous Version | Text Only | Print | Product List | Glossary On
Versions: 1 2 3 4 5 6 7 8 9 10 11 12 13 14 15 16 17 18 19 20 21 22 23 24 25 26 27 28 29 30 31 32 33 34 35 36 37 38 39 40 41 42 43 44 45 46 47 48 49 50
000
ASUS41 KOKX 161905
RWROKX

REGIONAL WEATHER ROUNDUP
NATIONAL WEATHER SERVICE NEW YORK NY
300 PM EDT TUE SEP 16 2014

NOTE: "FAIR" INDICATES FEW OR NO CLOUDS BELOW 12,000 FEET WITH NO
SIGNIFICANT WEATHER AND/OR OBSTRUCTIONS TO VISIBILITY.

NYZ071-072-176-178-NJZ106-104-162000-
NEW YORK CITY METRO AREA


CITY           SKY/WX    TMP DP  RH WIND       PRES   REMARKS
CENTRAL PARK   CLOUDY    69  55  60 CALM      29.99F
LAGUARDIA APRT PTSUNNY   68  55  63 NE7       29.96F
KENNEDY INTL   PTSUNNY   66  59  78 SE3       29.98F
NEWARK/LIBERTY PTSUNNY   70  57  63 CALM      29.97F
BRNX BOT. GARD   N/A     68  54  60 NW2       29.99S
TETERBORO      CLOUDY    70  54  56 CALM      29.96S
$$

NYZ177-179-078>081-162000-
LONG ISLAND NEW YORK

CITY           SKY/WX    TMP DP  RH WIND       PRES   REMARKS
FARMINGDALE    CLOUDY    65  57  75 S3        29.98S
ISLIP          CLOUDY    64  58  80 SW5       29.97S
SHIRLEY        CLOUDY    63  59  87 CALM      29.99S
WESTHAMPTON    CLOUDY    62  59  90 SW5       29.99F
MONTAUK POINT    N/A     66  54  65 VRB3      29.98F
$$

NYZ052-065-067-162000-
HUDSON VALLEY

CITY           SKY/WX    TMP DP  RH WIND       PRES   REMARKS
WHITE PLAINS   PTSUNNY   70  52  52 NW7       29.96F
NEWBURGH       PTSUNNY   66  57  72 NW6       29.99S
MONTGOMERY     CLOUDY    68  54  60 NW10      29.97F
POUGHKEEPSIE   CLOUDY    68  52  56 N3        29.96F
ALBANY         PTSUNNY   65  52  62 W6        29.97F
$$

NJZ001-105-106-008-010-013-015-019>022-104-162000-
NEW JERSEY

CITY           SKY/WX    TMP DP  RH WIND       PRES   REMARKS
NEWARK/LIBERTY PTSUNNY   70  57  63 CALM      29.97F
TETERBORO      CLOUDY    70  54  56 CALM      29.96S
CALDWELL       CLOUDY    68  52  56 CALM      29.97F
MORRISTOWN     PTSUNNY   72  55  56 NE6       29.97F
SOMERVILLE     CLOUDY    71  51  49 N9        29.96S
LINDEN         CLOUDY    72  59  63 CALM      29.99S
SUSSEX         CLOUDY    69  52  54 NW10G17   29.99S
ANDOVER          N/A     66  53  63 VRB3      29.99S
TRENTON        PTSUNNY   73  51  46 VRB7      29.97F
MILLVILLE      PTSUNNY   75  53  46 N12       29.96F
ATLANTIC CITY  PTSUNNY   73  55  53 N15       29.96S
WRIGHTSTOWN    PTSUNNY   69  57  66 N10       29.96S
TOMS RIVER     MOSUNNY   70  57  64 N7        29.98S
BELMAR         PTSUNNY   64  57  77 N6        29.98S
$$

PAZ047>061-062-071-162000-
EASTERN PENNSYLVANIA

CITY           SKY/WX    TMP DP  RH WIND       PRES   REMARKS
PHILADELPHIA   PTSUNNY   73  54  51 N9        29.98S
ALLENTOWN      PTSUNNY   72  51  47 N13       29.99S
SCRANTON       CLOUDY    64  47  53 N15G21    30.02S
$$

CTZ002-004>006-009-010-012-RIZ004-006-007-MAZ004-011-015-162000-
SOUTHERN NEW ENGLAND
 IN CT

CITY           SKY/WX    TMP DP  RH WIND       PRES   REMARKS
BRADLEY INTL   CLOUDY    66  53  63 CALM      29.96F
HARTFORD       PTSUNNY   67  55  65 S6        29.96F
DANBURY        SUNNY     68  49  50 N9        29.98F
WTRBRY/OXFORD  PTSUNNY   66  52  59 NW6       29.99S
BRIDGEPORT     CLOUDY    67  56  67 S8        29.97F
MERIDEN        CLOUDY    67  54  63 NW3       29.97S
NEW HAVEN      PTSUNNY   67  57  70 S8        29.97F
CHESTER        MOCLDY    66  55  68 CALM      29.98S
GROTON         CLOUDY    66  55  67 S8        29.96F
WILLIMANTIC    CLOUDY    67  53  61 W7        29.97F

 IN RI

CITY           SKY/WX    TMP DP  RH WIND       PRES   REMARKS
PROVIDENCE     PTSUNNY   70  52  52 SW8       29.96F
BLOCK ISLAND   PTSUNNY   66  50  55 S8        29.97S
WESTERLY       CLOUDY    66  52  60 S9        29.97F

 IN MA

CITY           SKY/WX    TMP DP  RH WIND       PRES   REMARKS
BOSTON         PTSUNNY   65  53  65 NW5       29.96F
WORCESTER      MOSUNNY   63  51  65 W10       29.97F
WESTFIELD      CLOUDY    66  52  60 VRB5      29.96F
PROVINCETOWN   CLOUDY    64  52  63 S6        29.96F
NANTUCKET      PTSUNNY   66  52  60 SE9       29.96F
$$

ANZ330-335-338-340-345-350-353-355-162000-
COASTAL MARINE OBSERVATIONS


STATION/POSITION TIME  SKY/WX   TEMP    WIND        PRES    VSBY  WAVE
                                AIR SEA DIR/SP/G                  HT/PER
                 (UTC)          (F)     (DEG/KT/KT) (MB)    (MI)  (FT/S)
NY HARB ENTRANCE NOT AVBL
4S FIRE IS       NOT AVBL
23SW MTP         1900                                 N/A           2/ 7
HUDSON CANYON    1900            67 73   20/  8/ 10 1014.0          2/14
EXECUTION ROCKS  1900            66 72  170/  2/  4   N/A
WESTERN LI SOUND 1900            64     160/  4/  6   N/A           1
CENTRAL LI SOUND 1800            63 71  190/  4/  6   N/A           0
EASTERN LI SOUND 1800            65 69   CALM  /  4   N/A
ROBBINS REEF     1900            66     160/  4/  5 1013.7
$$


>>>>>>>>>>>>>>>>>>>>>>>>>>>> KEY <<<<<<<<<<<<<<<<<<<<<<<<<<<
>                                                          <
>     SKY/WX - SKY CONDITION/PRESENT WEATHER               <
>     TMP    - TEMPERATURE IN FAHRENHEIT                   <
>     DP     - DEWPOINT IN FAHRENHEIT                      <
>     RH     - RELATIVE HUMIDITY IN PERCENT                <
>     WIND   - DIRECTION AND SPEED IN MPH                  <
>     PRES   - MEAN SEA LEVEL PRESSURE IN INCHES OF HG     <
>     WCI    - WIND CHILL INDEX                            <
>     VSB    - VISIBILITY IN MILES                         <
>     HX     - HEAT INDEX                                  <
>     TC     - TEMPERATURE IN CELSIUS                      <
>     VRB    - VARIABLE WIND DIRECTION                     <
>                                                          <
>>>>>>>>>>>>>>>>>>>>>>>>>>>> KEY <<<<<<<<<<<<<<<<<<<<<<<<<<<





USA.gov is the U.S. government's official web portal to all federal, state and local government web resources and services.